User: anonymous   Login
Location: Fisheating Creek Campgrounds
(26.9333°N, 81.3167°W)
Time: 15:13:27
(UTC-04:00)
Language:

NATO 3D Rocket - Orbit

View from above orbital plane
View from above orbital plane
View from above satellite
View from above satellite

Ground track
Ground track

The orbit data is extracted from the following two-line orbital elements,

1 15392U 84115B   17178.61814995 +.00000123 +00000-0 -27138-4 0  9998
2 15392 021.4902 263.4705 1034599 110.1401 261.3197 12.45547953485322
Epoch (UTC): 27 June 2017 14:50:08
Eccentricity: 0.1034599
inclination: 21.4902°
perigee height: 670 km
apogee height: 2296 km
right ascension of ascending node: 263.4705°
argument of perigee: 110.1401°
revolutions per day: 12.45547953
mean anomaly at epoch: 261.3197°
orbit number at epoch: 48532

The dashed part of the orbit path shows where the satellite is in the earth's shadow,  

DLR